Flag for U.S.A. Weather past 2 weeks in Tacoma, Washington, U.S.A.

Now
52 °F

Mostly cloudy.


Feels Like: 50 °F
Forecast: 44 / 53 °F
Wind: 7 mph from South

Location: Tacoma Narrows Airport

Current Time: Feb 26, 2015 at 3:47:10 PM

Latest Report: Feb 26, 2015 at 2:53 PM


Visibility: 8 mi

Pressure: 30.03 "Hg

Humidity: 80%

Dew point: 46 °F

Location of TacomaLocation

Historic Weather in Tacoma — Graph

°F

Tacoma temperature yesterday

Maximum temperature yesterday: 50 °F (at 2:53 PM)
Minimum temperature yesterday: 42 °F (at 12:53 AM)
Average temperature yesterday: 46 °F

Past Weeks' High & Low Weather Summary

 TemperatureHumidityPressure
High61 °F (Feb 12, 2:53 PM)100% (Feb 13, 6:00 AM)30.47 "Hg (Feb 13, 6:00 AM)
Low35 °F (Feb 23, 4:53 AM)27% (Feb 22, 11:53 AM)30.07 "Hg (Feb 26, 1:53 PM)
Average48 °F76%30.30 "Hg
* Reported Feb 11 1:53 PM — Feb 26 1:53 PM, Tacoma, Weather by CustomWeather, © 2015

Note: Actual official high and low records may vary slightly from our data, if they occured in-between our weather recording intervals... More about our weather records

Advertising

Tacoma weather history for previous 24 hours

 ConditionsComfort  
Time TempWeatherWind HumidityBarometerVisibility
1:53 PM
Thu, Feb 26
50 °FMostly cloudy.5 mph86%30.07 "Hg10 mi
12:53 PM50 °FFog.5 mph86%30.09 "Hg4 mi
11:53 AM50 °FFog.3 mph86%30.12 "Hg2 mi
10:53 AM48 °FFog.No wind89%30.14 "Hg1 mi
9:53 AM48 °FFog.No wind93%30.17 "Hg1 mi
8:53 AM47 °FFog.No wind93%30.18 "Hg1 mi
7:53 AM46 °FFog.No wind96%30.18 "Hg1 mi
6:53 AM46 °FFog.No wind96%30.18 "Hg2 mi
6:00 AM46 °FFog.No wind93%30.19 "Hg2 mi
5:53 AM46 °FFog.No wind93%30.20 "Hg3 mi
4:53 AM47 °FLow clouds.No wind90%30.22 "Hg10 mi
3:53 AM46 °FLow clouds.No wind93%30.23 "Hg10 mi
2:53 AM47 °FLow clouds.No wind86%30.24 "Hg10 mi
1:53 AM47 °FMostly cloudy.No wind86%30.24 "Hg10 mi
12:53 AM47 °FOvercast.No wind90%30.26 "Hg10 mi
12:04 AM47 °FLow clouds.3 mph90%30.27 "Hg10 mi
11:53 PM
Wed, Feb 25
47 °FOvercast.No wind90%30.27 "Hg10 mi
10:53 PM47 °FOvercast.5 mph90%30.27 "Hg10 mi
9:53 PM48 °FOvercast.7 mph86%30.28 "Hg10 mi
8:53 PM48 °FOvercast.5 mph86%30.28 "Hg10 mi
7:53 PM48 °FMostly cloudy.7 mph89%30.28 "Hg10 mi
6:53 PM48 °FOvercast.7 mph89%30.30 "Hg10 mi
5:53 PM48 °FOvercast.5 mph89%30.31 "Hg10 mi
4:53 PM48 °FLight rain. Mostly cloudy.6 mph89%30.33 "Hg10 mi
3:53 PM49 °FMostly cloudy.8 mph90%30.34 "Hg10 mi
Weather by CustomWeather, © 2015

See weather overviewHow to use our weather pages